CZ-6A DEB, 61155

Orbit data source: Space-Track

CZ-6A DEB, 61155 is space debris in LEO originally from a launch on Tue, 06 Aug 2024 UTC launched from the Taiyaun Space Center, China (TSC). Debris objects in space refer to the collection of defunct objects orbiting the Earth. Examples of debris include non-operational satellites, rocket bodies, and fragments generated from explosions, collisions, or faulty payload assembly.

Loading next visibility...
Identifier
61155, 2024-140QZ
Orbit
LEO
Country
Flag of CNCN / PRC
Related business
Manufacturer
SAST
Mission
Spacecraft
Bus & Motor
Unknown
Mass
Unknown
Launch date (UTC)
2024-08-06 (2 years ago)
Launch vehicle
Unknown
Launch site
Taiyaun Space Center, China (TSC)
Object type
Payload
Rocket body
Debris
Shape & HBR
Unknown shape, 1.1 m
Radar Cross Section
Medium (>0.1 m² and <1 m²)

Expand to show TLE details & history
Last TLE update: 19 hours ago

TLE from 19 hours ago
0 CZ-6A DEB
1 61155U 24140QZ  26171.13574667  .00002007  00000-0  78271-3 0  9992
2 61155  88.5005 233.6232 0104584  94.8871 266.4273 14.26335778 94960
Epoch: 2026-06-20T03:15Z
TLE epoch observation values (Epoch: 2026-06-20T03:15:28.512Z)
Latitude
0.00002°
Longitude
-83.60031°
Altitude
812.529 km
Speed
7.444 km/s
True Right ascension
15h 34m 29s
True Declination
0° 00' 00"
Sunlit
Object was in full shadow at epoch
Visualization orbit readout
Latitude
Unknown
Longitude
Unknown
Altitude
Unknown
Speed
Unknown
Apparent Right ascension
Unknown
Apparent Declination
Unknown
Sunlit
N/A
Visualization observer readout
Local Sidereal Time
08:42:22
Azimuth
Unknown
Elevation
Unknown
Doppler factor
Unknown
Orbital elements
Apogee altitude
876.032 km
Perigee altitude
725.868 km
Semi-major axis
7,179.087 km
Eccentricity
0.01046
Inclination
88.5005°
RAAN
233.6232°
Arg. of periapsis
94.8871°
True anomaly
265.23225°
Mean anomaly
266.4273°
Eccentric anomaly
265.82966°
Mean motion
3.56812 °/min
Orbital period
100.89 mins
BSTAR
0.00078271
Loading maneuver chart data...
Computing Atmospheric mass density...
Loading historical data...
Loading historical data...
Loading historical data...
Loading historical data...
Loading historical data...
Loading historical data...
Loading historical data...

Documentation

Showing up to 5 results
|